Location: Newark
(51.8042°N, 2.6377°W)
Time: 08:08:49
(UTC+00:00)

Starlink Launch 2 leader - Visible Passes

Search period start: 06 December 2019 00:00
Search period end: 16 December 2019 00:00
Orbit: 279 x 281 km, 53.0° (Epoch: 13 November)

Date Brightness Start Highest point End Pass type
(mag) Time Alt. Az. Time Alt. Az. Time Alt. Az.
06 Dec 5.9 05:14:06 13° E 05:14:06 13° E 05:14:26 10° ESE visible
06 Dec 3.9 06:44:13 17° WSW 06:45:25 24° SSW 06:47:29 10° SSE visible
07 Dec 5.8 05:16:05 12° ESE 05:16:05 12° ESE 05:16:22 10° ESE visible
07 Dec 4.5 06:46:12 13° WSW 06:47:12 15° SW 06:48:46 10° S visible
08 Dec 5.9 05:18:06 11° SE 05:18:06 11° SE 05:18:12 10° SE visible
